When you browse on this site, cookies collect data to enhance your experience and personalize the content and advertising you see.
Visit our Privacy Policy to learn more. By continuing to use the site, you agree to this use of cookies and data.
  • In Österreich
  • Länderverzeichnis
  • Für 7 Tage
  • Wassertemperatur
  • Wetterkarte
  • News
  • Widgets
  • user-avatar
    Anmelden

    Stündliche Wetter Prutz

    Heute, 22 Oktober, Dienstag

    Zeit Temperatur Niederschläge Wind Luftdruck Luftfeuchtigkeit
    00:00 +8°C° 0 mm 2 m/S 637 mmHg 92%
    01:00 +8°C° 0 mm 2 m/S 637 mmHg 91%
    02:00 +8°C° 0 mm 2 m/S 637 mmHg 90%
    03:00 +8°C° 0 mm 2 m/S 637 mmHg 89%
    04:00 +8°C° 0 mm 2 m/S 637 mmHg 88%
    05:00 +8°C° 0 mm 2 m/S 637 mmHg 86%
    06:00 +7°C° 0 mm 2 m/S 637 mmHg 85%
    07:00 +7°C° 0 mm 2 m/S 637 mmHg 83%
    08:00 +9°C° 0 mm 2 m/S 638 mmHg 78%
    09:00 +12°C° 0 mm 2 m/S 638 mmHg 72%
    10:00 +14°C° 0 mm 2 m/S 639 mmHg 67%
    11:00 +15°C° 0 mm 2 m/S 639 mmHg 63%
    12:00 +16°C° 0 mm 2 m/S 640 mmHg 59%
    13:00 +17°C° 0 mm 2 m/S 640 mmHg 55%
    14:00 +17°C° 0 mm 2 m/S 639 mmHg 60%
    15:00 +16°C° 0 mm 2 m/S 639 mmHg 64%
    16:00 +16°C° 0 mm 2 m/S 639 mmHg 68%
    17:00 +14°C° 0 mm 2 m/S 638 mmHg 72%
    18:00 +12°C° 0 mm 2 m/S 638 mmHg 76%
    19:00 +9°C° 0 mm 2 m/S 637 mmHg 80%
    20:00 +9°C° 0 mm 2 m/S 637 mmHg 81%
    21:00 +9°C° 0 mm 3 m/S 637 mmHg 81%
    22:00 +8°C° 0 mm 3 m/S 637 mmHg 82%
    23:00 +8°C° 0 mm 3 m/S 637 mmHg 81%

    Morgen, 23 Oktober, Mittwoch

    Zeit Temperatur Niederschläge Wind Luftdruck Luftfeuchtigkeit
    00:00 +8°C° 0 mm 3 m/S 636 mmHg 79%
    01:00 +8°C° 0 mm 3 m/S 636 mmHg 78%
    02:00 +8°C° 0 mm 3 m/S 636 mmHg 76%
    03:00 +8°C° 0 mm 3 m/S 636 mmHg 73%
    04:00 +7°C° 0 mm 3 m/S 635 mmHg 71%
    05:00 +7°C° 0 mm 3 m/S 635 mmHg 69%
    06:00 +7°C° 0 mm 3 m/S 635 mmHg 67%
    07:00 +7°C° 0 mm 3 m/S 634 mmHg 65%
    08:00 +9°C° 0 mm 3 m/S 635 mmHg 59%
    09:00 +12°C° 0 mm 3 m/S 636 mmHg 53%
    10:00 +14°C° 0 mm 3 m/S 637 mmHg 47%
    11:00 +16°C° 0 mm 3 m/S 637 mmHg 44%
    12:00 +17°C° 0 mm 3 m/S 637 mmHg 41%
    13:00 +18°C° 0 mm 3 m/S 637 mmHg 38%
    14:00 +17°C° 0 mm 3 m/S 636 mmHg 43%
    15:00 +16°C° 0 mm 3 m/S 636 mmHg 49%
    16:00 +14°C° 0 mm 3 m/S 635 mmHg 55%
    17:00 +12°C° 0 mm 3 m/S 635 mmHg 60%
    18:00 +11°C° 0 mm 3 m/S 634 mmHg 65%
    19:00 +9°C° 0 mm 3 m/S 634 mmHg 70%
    20:00 +9°C° 0 mm 3 m/S 633 mmHg 71%
    21:00 +8°C° 0 mm 4 m/S 633 mmHg 71%
    22:00 +7°C° 0 mm 4 m/S 633 mmHg 72%
    23:00 +8°C° 0 mm 4 m/S 633 mmHg 71%

    übermorgen, 24 Oktober, Donnerstag

    Zeit Temperatur Niederschläge Wind Luftdruck Luftfeuchtigkeit
    00:00 +8°C° 0 mm 4 m/S 633 mmHg 69%
    01:00 +8°C° 0 mm 4 m/S 633 mmHg 68%
    02:00 +8°C° 0 mm 4 m/S 633 mmHg 67%
    03:00 +8°C° 0 mm 4 m/S 633 mmHg 66%
    04:00 +8°C° 0 mm 4 m/S 632 mmHg 65%
    05:00 +8°C° 0 mm 4 m/S 632 mmHg 64%
    06:00 +8°C° 0 mm 4 m/S 632 mmHg 64%
    07:00 +8°C° 0 mm 4 m/S 632 mmHg 63%
    08:00 +10°C° 0 mm 3 m/S 633 mmHg 60%
    09:00 +12°C° 0 mm 3 m/S 633 mmHg 57%
    10:00 +14°C° 0 mm 3 m/S 634 mmHg 54%
    11:00 +14°C° 0 mm 3 m/S 634 mmHg 53%
    12:00 +16°C° 0 mm 3 m/S 635 mmHg 53%
    13:00 +17°C° 0 mm 2 m/S 635 mmHg 53%
    14:00 +16°C° 0 mm 2 m/S 635 mmHg 58%
    15:00 +15°C° 0 mm 2 m/S 634 mmHg 63%
    16:00 +15°C° 0 mm 2 m/S 634 mmHg 68%
    17:00 +13°C° 0 mm 2 m/S 634 mmHg 75%
    18:00 +10°C° 0 mm 2 m/S 633 mmHg 81%
    19:00 +8°C° 0 mm 2 m/S 633 mmHg 88%
    20:00 +9°C° 0 mm 1 m/S 633 mmHg 89%
    21:00 +8°C° 0 mm 1 m/S 633 mmHg 90%
    22:00 +8°C° 0 mm 1 m/S 634 mmHg 92%
    23:00 +8°C° 0 mm 1 m/S 634 mmHg 93%

    25 Oktober, Freitag

    Zeit Temperatur Niederschläge Wind Luftdruck Luftfeuchtigkeit
    00:00 +8°C° 0 mm 1 m/S 634 mmHg 94%
    01:00 +7°C° 0 mm 0 m/S 634 mmHg 95%
    02:00 +7°C° 0 mm 0 m/S 634 mmHg 94%
    03:00 +7°C° 0 mm 0 m/S 634 mmHg 94%
    04:00 +7°C° 0 mm 0 m/S 635 mmHg 93%
    05:00 +7°C° 0 mm 0 m/S 635 mmHg 94%
    06:00 +7°C° 0 mm 0 m/S 635 mmHg 95%
    07:00 +7°C° 0 mm 0 m/S 635 mmHg 96%
    08:00 +9°C° 0 mm 1 m/S 636 mmHg 91%
    09:00 +11°C° 0 mm 1 m/S 636 mmHg 85%
    10:00 +12°C° 0 mm 1 m/S 637 mmHg 80%
    11:00 +13°C° 0 mm 1 m/S 637 mmHg 73%
    12:00 +15°C° 0 mm 1 m/S 638 mmHg 66%
    13:00 +16°C° 0 mm 1 m/S 638 mmHg 59%
    14:00 +16°C° 0 mm 1 m/S 638 mmHg 62%
    15:00 +15°C° 0 mm 1 m/S 637 mmHg 65%
    16:00 +15°C° 0 mm 1 m/S 637 mmHg 68%
    17:00 +13°C° 0 mm 1 m/S 636 mmHg 73%
    18:00 +10°C° 0 mm 2 m/S 636 mmHg 77%
    19:00 +9°C° 0 mm 2 m/S 635 mmHg 82%
    20:00 +8°C° 0 mm 2 m/S 635 mmHg 81%
    21:00 +8°C° 0 mm 2 m/S 636 mmHg 81%
    22:00 +8°C° 0 mm 2 m/S 636 mmHg 80%
    23:00 +8°C° 0 mm 2 m/S 635 mmHg 80%

    26 Oktober, Samstag

    Zeit Temperatur Niederschläge Wind Luftdruck Luftfeuchtigkeit
    00:00 +7°C° 0 mm 2 m/S 635 mmHg 80%
    01:00 +7°C° 0 mm 2 m/S 635 mmHg 80%
    02:00 +8°C° 0 mm 1 m/S 635 mmHg 80%
    03:00 +8°C° 0 mm 1 m/S 635 mmHg 79%
    04:00 +7°C° 0 mm 1 m/S 635 mmHg 79%
    05:00 +7°C° 0 mm 1 m/S 635 mmHg 78%
    06:00 +7°C° 0 mm 1 m/S 635 mmHg 77%
    07:00 +7°C° 0 mm 1 m/S 635 mmHg 76%
    08:00 +10°C° 0 mm 1 m/S 636 mmHg 68%
    09:00 +11°C° 0 mm 0 m/S 637 mmHg 60%
    10:00 +14°C° 0 mm 0 m/S 639 mmHg 51%
    11:00 +16°C° 0 mm 1 m/S 639 mmHg 50%
    12:00 +16°C° 0 mm 1 m/S 639 mmHg 49%
    13:00 +18°C° 0 mm 1 m/S 639 mmHg 47%
    14:00 +16°C° 0 mm 1 m/S 638 mmHg 54%
    15:00 +15°C° 0 mm 1 m/S 637 mmHg 62%
    16:00 +14°C° 0 mm 1 m/S 637 mmHg 69%
    17:00 +12°C° 0 mm 1 m/S 636 mmHg 76%
    18:00 +9°C° 0 mm 0 m/S 636 mmHg 82%
    19:00 +7°C° 0 mm 0 m/S 636 mmHg 89%
    20:00 +7°C° 0 mm 0 m/S 636 mmHg 88%
    21:00 +7°C° 0 mm 0 m/S 636 mmHg 88%
    22:00 +8°C° 0 mm 1 m/S 636 mmHg 87%
    23:00 +8°C° 0 mm 1 m/S 636 mmHg 86%

    27 Oktober, Sonntag

    Zeit Temperatur Niederschläge Wind Luftdruck Luftfeuchtigkeit
    00:00 +8°C° 0 mm 1 m/S 636 mmHg 85%
    01:00 +7°C° 0 mm 1 m/S 635 mmHg 84%
    02:00 +7°C° 0 mm 1 m/S 635 mmHg 85%
    03:00 +6°C° 0 mm 0 m/S 635 mmHg 86%
    04:00 +5°C° 0 mm 0 m/S 635 mmHg 88%
    05:00 +5°C° 0 mm 0 m/S 635 mmHg 88%
    06:00 +5°C° 0 mm 0 m/S 635 mmHg 89%
    07:00 +5°C° 0 mm 0 m/S 635 mmHg 90%
    08:00 +7°C° 0 mm 0 m/S 636 mmHg 84%
    09:00 +9°C° 0 mm 0 m/S 637 mmHg 79%
    10:00 +10°C° 0 mm 0 m/S 638 mmHg 73%
    11:00 +11°C° 0 mm 0 m/S 638 mmHg 70%
    12:00 +13°C° 0 mm 1 m/S 638 mmHg 67%
    13:00 +14°C° 0 mm 1 m/S 638 mmHg 64%
    14:00 +13°C° 0 mm 1 m/S 637 mmHg 69%
    15:00 +13°C° 0 mm 1 m/S 637 mmHg 74%
    16:00 +12°C° 0 mm 1 m/S 637 mmHg 78%
    17:00 +11°C° 0 mm 1 m/S 636 mmHg 84%
    18:00 +8°C° 0 mm 0 m/S 636 mmHg 90%
    19:00 +7°C° 0 mm 0 m/S 636 mmHg 95%
    20:00 +7°C° 0 mm 0 m/S 636 mmHg 95%
    21:00 +7°C° 0 mm 0 m/S 636 mmHg 95%
    22:00 +7°C° 0 mm 0 m/S 636 mmHg 95%
    23:00 +7°C° 0 mm 0 m/S 636 mmHg 94%

    28 Oktober, Montag

    Zeit Temperatur Niederschläge Wind Luftdruck Luftfeuchtigkeit
    00:00 +7°C° 0 mm 0 m/S 636 mmHg 93%
    01:00 +7°C° 0 mm 0 m/S 635 mmHg 92%
    02:00 +6°C° 0 mm 0 m/S 635 mmHg 92%
    03:00 +6°C° 0 mm 0 m/S 634 mmHg 92%
    04:00 +6°C° 0 mm 0 m/S 634 mmHg 93%
    05:00 +6°C° 0 mm 0 m/S 634 mmHg 91%
    06:00 +6°C° 0 mm 0 m/S 634 mmHg 90%
    07:00 +7°C° 0 mm 0 m/S 634 mmHg 89%
    08:00 +7°C° 0 mm 0 m/S 635 mmHg 86%
    09:00 +9°C° 0 mm 1 m/S 635 mmHg 82%
    10:00 +10°C° 0 mm 1 m/S 635 mmHg 79%
    11:00 +10°C° 0 mm 1 m/S 635 mmHg 78%
    12:00 +11°C° 0 mm 1 m/S 635 mmHg 77%
    13:00 +11°C° 0 mm 1 m/S 635 mmHg 76%
    14:00 +11°C° 0 mm 1 m/S 635 mmHg 78%
    15:00 +11°C° 0 mm 1 m/S 635 mmHg 79%
    16:00 +10°C° 0 mm 1 m/S 634 mmHg 81%
    17:00 +10°C° 0.1 mm 1 m/S 634 mmHg 85%
    18:00 +8°C° 0.1 mm 0 m/S 634 mmHg 89%
    19:00 +7°C° 0.1 mm 0 m/S 634 mmHg 93%
    20:00 +7°C° 0.2 mm 0 m/S 633 mmHg 93%
    21:00 +7°C° 0.2 mm 0 m/S 633 mmHg 94%
    22:00 +7°C° 0.2 mm 0 m/S 633 mmHg 94%
    23:00 +7°C° 0.1 mm 0 m/S 633 mmHg 94%
    Mehr zeigen